Location: La Trinit�
(48.1620°N, 3.4512°W)
Time: 02:29:34
(UTC+00:00)

NOSS 3-3 (C) - Pass Details

Date: 08 May 2021
Orbit: 807 x 1405 km, 63.4° (Epoch: 06 June)

Event Time Altitude Azimuth Distance (km) Brightness Sun altitude
Rises 21:43:23 0° 213° (SSW) 3,375 6.6 -16.8°
Reaches altitude 10° 21:45:43 10° 211° (SSW) 2,487 5.9 -17.0°
Maximum altitude 21:51:26 76° 127° (SE) 960 3.8 -17.5°
Drops below altitude 10° 21:58:01 10° 43° (NE) 2,845 6.6 -18.2°
Sets 22:00:51 0° 42° (NE) 3,896 7.3 -18.4°
